Regional Weather Roundup
Issued by NWS

Home | Current Version | Previous Version | Text Only | Print | Product List | Glossary Off
Versions: 1 2 3 4 5 6 7 8 9 10 11 12 13 14 15 16 17 18 19 20 21 22 23 24 25 26 27 28 29 30 31 32 33 34 35 36 37 38 39 40 41 42 43 44 45 46 47 48 49 50

000
ASUS45 KCYS 210710
RWRWY

WYOMING REGIONAL WEATHER ROUNDUP
NATIONAL WEATHER SERVICE CHEYENNE WY
100 AM MDT TUE OCT 21 2014

NOTE:  "FAIR" INDICATES FEW OR NO CLOUDS BELOW 12,000 FEET
WITH NO SIGNIFICANT WEATHER AND/OR OBSTRUCTIONS TO VISIBILITY.

WYZ001-210800-
YELLOWSTONE NATIONAL PARK

CITY           SKY/WX    TMP DP  RH WIND       PRES   REMARKS
LK YELLOWSTONE   N/A     31  28  89 NW3       30.07F
W YELLOWSTONE  NOT AVBL

$$
WYZ002>013-054>058-071-098>099-210800-
NORTHERN WYOMING

CITY           SKY/WX    TMP DP  RH WIND       PRES   REMARKS
JACKSON        PTCLDY    36  30  80 N5        30.01F WCI  32
CODY           CLEAR     54  34  47 S8        29.89S
GREYBULL       CLEAR     43  26  51 NE6       29.85S
WORLAND        CLEAR     42  28  57 S3        29.86S
SHERIDAN       CLEAR     41  30  65 S5        29.82F
BUFFALO        CLEAR     53  24  32 SW10      29.89S
GILLETTE       CLEAR     57  32  38 S16       29.87S
HULETT         FAIR      68  34  28 S10       29.88
NEWCASTLE      FAIR      59  34  38 E9        29.93

$$
WYZ014>020-022>026-101>103-210800-
CENTRAL WYOMING

CITY           SKY/WX    TMP DP  RH WIND       PRES   REMARKS
BIG PINEY      MOCLDY    34  26  72 NE3       30.07F
PINEDALE       PTSUNNY   34  30  86 CALM      30.08F
DUBOIS         FAIR      37  27  65 NW12      30.04S WCI  30
LANDER         CLEAR     55  31  39 CALM      29.94F
RIVERTON       CLEAR     46  30  53 NW8       29.96F
CASPER         CLEAR     49  34  56 SW7       29.97F
DOUGLAS        CLEAR     44  33  65 CALM      29.99S

$$
WYZ021-027>030-104>119-210800-
SOUTHERN WYOMING

CITY           SKY/WX    TMP DP  RH WIND       PRES   REMARKS
EVANSTON       MOCLDY    49  34  56 SE6       30.06F
KEMMERER       PTSUNNY   45  32  61 CALM      30.08S
FORT BRIDGER   CLOUDY    54  34  47 S10       30.09F
ROCK SPRINGS   CLEAR     50  33  52 SE9       30.07S
DIXON          FAIR      43  35  71 CALM      30.13S
RAWLINS        CLEAR     49  34  56 SW7       30.09F
SARATOGA       FAIR      43  34  70 SE10      30.13S
LARAMIE        CLEAR     38  31  76 S7        30.13F WCI  33
CHEYENNE       CLEAR     41  34  76 W5        30.07S
TORRINGTON     CLEAR     55  37  50 SE10      29.97F
PINE BLUFFS    FAIR      50  37  62 S9        30.04S

$$


USA.gov is the U.S. government's official web portal to all federal, state and local government web resources and services.